Location: Newark
(44.9486°N, 4.8961°E)
Time: 09:03:30
(UTC+00:00)

ISS - Pass Details

Date: 29 July 2019
Orbit: 410 x 421 km, 51.6° (Epoch: 26 August)

Event Time Altitude Azimuth Distance (km) Brightness Sun altitude
Rises 21:26:17 0° 300° (WNW) 2,374 1.2 -18.8°
Reaches altitude 10° 21:28:24 10° 302° (WNW) 1,505 0.0 -19.0°
Maximum altitude 21:31:47 77° 29° (NNE) 434 -3.8 -19.4°
Enters shadow 21:32:04 69° 80° (E) 450 -3.8 -19.4°
